| time (UTC) | temp C | wind direction | speed KPH | gust KPH | rain 1hr cm | rain 24hr cm | rain mn cm | humidity % | barometer mb |
| 20260504020604 | 7 | 0 | 0.0 | 0.0 | 0.00 | 0.03 | 0.00 | 74 | 1018.4 |
| 20260504014104 | 7 | 0 | 0.0 | 0.0 | 0.00 | 0.03 | 0.00 | 73 | 1018.4 |
| 20260504013604 | 7 | 0 | 0.0 | 0.0 | 0.00 | 0.03 | 0.00 | 74 | 1018.4 |
| 20260504013103 | 7 | 0 | 0.0 | 3.2 | 0.00 | 0.03 | 0.00 | 74 | 1018.4 |
| 20260504011604 | 7 | 0 | 0.0 | 11.3 | 0.00 | 0.03 | 0.00 | 73 | 1018.4 |
| 20260504011104 | 7 | 0 | 1.6 | 11.3 | 0.00 | 0.03 | 0.00 | 73 | 1018.3 |
| 20260504004603 | 7 | 0 | 0.0 | 0.0 | 0.00 | 0.03 | 0.00 | 71 | 1018.3 |
| 20260504003604 | 8 | 0 | 0.0 | 0.0 | 0.00 | 0.03 | 0.00 | 70 | 1018.2 |
| 20260504001604 | 8 | 0 | 0.0 | 0.0 | 0.00 | 0.03 | 0.00 | 69 | 1018.4 |
| 20260504001104 | 8 | 0 | 0.0 | 0.0 | 0.00 | 0.03 | 0.00 | 68 | 1018.4 |
| 20260503234104 | 9 | 0 | 0.0 | 0.0 | 0.00 | 0.03 | 0.00 | 66 | 1018.4 |
| 20260503231103 | 10 | 0 | 0.0 | 0.0 | 0.00 | 0.03 | 0.00 | 64 | 1018.4 |
| 20260503224604 | 10 | 0 | 0.0 | 0.0 | 0.00 | 0.03 | 0.00 | 64 | 1018.2 |
| 20260503224104 | 10 | 0 | 0.0 | 0.0 | 0.00 | 0.03 | 0.00 | 65 | 1018.2 |
| 20260503223603 | 10 | 0 | 0.0 | 0.0 | 0.00 | 0.03 | 0.00 | 65 | 1018.2 |
| 20260503221603 | 10 | 0 | 0.0 | 0.0 | 0.00 | 0.03 | 0.00 | 64 | 1018.0 |
| 20260503210603 | 11 | 0 | 0.0 | 0.0 | 0.00 | 0.03 | 0.00 | 58 | 1018.0 |
| 20260503210105 | 11 | 0 | 0.0 | 0.0 | 0.00 | 0.03 | 0.00 | 58 | 1018.0 |
| 20260503204603 | 11 | 0 | 0.0 | 0.0 | 0.00 | 0.03 | 0.03 | 56 | 1018.0 |
| 20260503204104 | 11 | 0 | 0.0 | 0.0 | 0.00 | 0.03 | 0.03 | 56 | 1018.0 |
| 20260503203104 | 11 | 0 | 0.0 | 0.0 | 0.00 | 0.03 | 0.03 | 56 | 1018.0 |
| 20260503201104 | 11 | 0 | 0.0 | 0.0 | 0.00 | 0.03 | 0.03 | 56 | 1017.9 |
| 20260503193604 | 12 | 0 | 0.0 | 0.0 | 0.00 | 0.03 | 0.03 | 57 | 1017.9 |
| 20260503191604 | 13 | 0 | 0.0 | 0.0 | 0.00 | 0.03 | 0.03 | 56 | 1017.9 |
| 20260503191103 | 13 | 0 | 0.0 | 0.0 | 0.00 | 0.03 | 0.03 | 55 | 1017.9 |
| 20260503190604 | 13 | 0 | 0.0 | 0.0 | 0.00 | 0.03 | 0.03 | 54 | 1017.6 |
| 20260503184104 | 14 | 0 | 0.0 | 0.0 | 0.00 | 0.03 | 0.03 | 51 | 1017.6 |
| 20260503180603 | 15 | 0 | 0.0 | 0.0 | 0.00 | 0.03 | 0.03 | 47 | 1016.5 |
| 20260503180104 | 15 | 0 | 0.0 | 0.0 | 0.00 | 0.03 | 0.03 | 47 | 1016.5 |
| 20260503174604 | 16 | 0 | 0.0 | 0.0 | 0.00 | 0.03 | 0.03 | 44 | 1016.5 |
| 20260503173604 | 16 | 0 | 0.0 | 0.0 | 0.00 | 0.03 | 0.03 | 42 | 1016.5 |
| 20260503173104 | 16 | 0 | 0.0 | 0.0 | 0.00 | 0.03 | 0.03 | 42 | 1016.5 |
| 20260503171604 | 16 | 68 | 0.0 | 0.0 | 0.00 | 0.03 | 0.03 | 41 | 1016.5 |
| 20260503171104 | 17 | 2 | 0.0 | 0.0 | 0.00 | 0.03 | 0.03 | 41 | 1016.4 |
| 20260503170103 | 17 | 18 | 0.0 | 0.0 | 0.00 | 0.03 | 0.03 | 39 | 1016.1 |
| 20260503150604 | 18 | 61 | 0.0 | 0.0 | 0.00 | 0.03 | 0.03 | 35 | 1016.4 |
| 20260503130104 | 17 | 0 | 0.0 | 0.0 | 0.00 | 0.03 | 0.03 | 47 | 1017.2 |
| 20260503120104 | 16 | 0 | 0.0 | 0.0 | 0.00 | 0.03 | 0.03 | 47 | 1017.7 |
| 20260503090104 | 12 | 326 | 0.0 | 0.0 | 0.00 | 0.03 | 0.03 | 62 | 1018.5 |
| 20260503081603 | 12 | 356 | 0.0 | 0.0 | 0.00 | 0.03 | 0.03 | 62 | 1018.5 |
| 20260503081103 | 12 | 315 | 0.0 | 0.0 | 0.00 | 0.03 | 0.03 | 62 | 1018.5 |
| 20260503080603 | 13 | 294 | 0.0 | 0.0 | 0.00 | 0.03 | 0.03 | 63 | 1018.5 |
| 20260503080104 | 13 | 298 | 0.0 | 4.8 | 0.00 | 0.03 | 0.03 | 62 | 1018.5 |
| 20260503071103 | 11 | 19 | 0.0 | 0.0 | 0.00 | 0.03 | 0.03 | 64 | 1018.1 |
| 20260503070103 | 11 | 72 | 0.0 | 1.6 | 0.00 | 0.03 | 0.03 | 74 | 1018.1 |
| 20260503054604 | 8 | 355 | 0.0 | 0.0 | 0.00 | 0.03 | 0.03 | 83 | 1018.1 |
| 20260503054104 | 8 | 355 | 0.0 | 0.0 | 0.00 | 0.03 | 0.03 | 83 | 1017.4 |
| 20260503053603 | 8 | 22 | 0.0 | 0.0 | 0.00 | 0.03 | 0.03 | 84 | 1017.4 |
| 20260503051603 | 8 | 0 | 0.0 | 0.0 | 0.00 | 0.03 | 0.03 | 85 | 1017.4 |
| 20260503050604 | 9 | 0 | 0.0 | 0.0 | 0.00 | 0.03 | 0.03 | 85 | 1017.4 |
| 20260503050103 | 8 | 0 | 0.0 | 0.0 | 0.00 | 0.03 | 0.03 | 84 | 1017.4 |
| 20260503044604 | 9 | 0 | 0.0 | 0.0 | 0.00 | 0.03 | 0.03 | 84 | 1017.4 |
| 20260503044104 | 9 | 0 | 0.0 | 0.0 | 0.00 | 0.03 | 0.03 | 84 | 1017.4 |
| 20260503043604 | 9 | 0 | 0.0 | 0.0 | 0.00 | 0.03 | 0.03 | 84 | 1017.4 |
| 20260503041604 | 8 | 0 | 0.0 | 0.0 | 0.03 | 0.03 | 0.03 | 84 | 1017.4 |
| 20260503041104 | 8 | 0 | 0.0 | 0.0 | 0.03 | 0.03 | 0.03 | 84 | 1017.4 |
| 20260503040104 | 8 | 0 | 0.0 | 1.6 | 0.03 | 0.03 | 0.03 | 83 | 1017.1 |
| 20260503034604 | 8 | 0 | 0.0 | 0.0 | 0.03 | 0.03 | 0.03 | 83 | 1017.1 |
| 20260503033104 | 8 | 0 | 0.0 | 0.0 | 0.03 | 0.03 | 0.03 | 82 | 1017.1 |
| 20260503031604 | 8 | 0 | 0.0 | 0.0 | 0.00 | 0.00 | 0.00 | 82 | 1017.1 |
| 20260503031104 | 8 | 0 | 0.0 | 1.6 | 0.00 | 0.00 | 0.00 | 82 | 1017.1 |
| 20260503030103 | 8 | 0 | 0.0 | 0.0 | 0.00 | 0.00 | 0.00 | 82 | 1017.1 |
| 20260503023603 | 8 | 0 | 0.0 | 1.6 | 0.00 | 0.00 | 0.00 | 82 | 1017.1 |
| 20260503021603 | 8 | 0 | 0.0 | 0.0 | 0.00 | 0.00 | 0.00 | 82 | 1017.1 |